Regional Weather Roundup
Issued by NWS

Home | Current Version | Previous Version | Text Only | Print | Product List | Glossary On
Versions: 1 2 3 4 5 6 7 8 9 10 11 12 13 14 15 16 17 18 19 20 21 22 23 24 25 26 27 28 29 30 31 32 33 34 35 36 37 38 39 40 41 42 43 44 45 46 47 48 49 50
310
ASUS44 KLIX 241013
RWRLA
LOUISIANA WEATHER ROUNDUP
NATIONAL WEATHER SERVICE NEW ORLEANS LA
500 AM CDT FRI MAR 24 2017

NOTE: "FAIR" INDICATES FEW OR NO CLOUDS BELOW 12,000 FEET WITH NO
      SIGNIFICANT WEATHER AND/OR OBSTRUCTIONS TO VISIBILITY.
      SKY/WX - SKY CONDITION AND SIGNIFICANT WEATHER.
      TMP - AIR TEMPERATURE.    DP   - DEWPOINT TEMPERATURE.
      RH  - RELATIVE HUMIDITY.  PRES - PRESSURE.
      HX  - HEAT INDEX.         WCI  - WIND CHILL INDEX.

*  THESE STATIONS ARE NOT NWS OR FAA STATIONS AND ARE NOT UNDER
   NWS QUALITY CONTROL.

LAZ040-048-061>063-065-066-069-241100-
SOUTHEAST LOUISIANA

CITY           SKY/WX    TMP DP  RH WIND       PRES   REMARKS
N.O. INTL ARPT MOCLDY    68  65  90 SE14      30.14F
N.O. LAKEFRONT PTCLDY    70  65  84 SE12      30.15F
N.O. DOWNTOWN*   N/A     70  65  84 S9        30.15F
RESERVE*       PTSUNNY   70  67  92 SE6       30.13S
SLIDELL        PTCLDY    69  65  86 SE7       30.15F
BATON ROUGE    CLOUDY    69  66  90 SE12      30.11S
BOOTHVILLE     PTCLDY    66  65  96 SE9       30.15F
BELLE CHASSE   PTCLDY   N/A N/A N/A SE13      30.14F
BOGALUSA*      PTSUNNY   70  64  80 SE8       30.18S
GALLIANO*      PTSUNNY   71  64  78 SE10G17   30.14F
NEW ROADS*     CLOUDY    67  65  92 SE9       30.10S
GONZALES*      FAIR      69  66  90 SE8       30.11S
HAMMOND*       PTCLDY    68  63  83 SE15G21   30.14S
HOUMA*         MOCLDY    70  65  85 SE14      30.12F
PORT FOURCHON* PTSUNNY   72  66  83 SE21      30.13S

$$

LAZ041-044-053-054-241100-
SOUTHWEST LOUISIANA

CITY           SKY/WX    TMP DP  RH WIND       PRES   REMARKS
LAKE CHARLES   CLEAR     70  65  84 S14G22    30.04S
LAFAYETTE      PTCLDY    70  66  87 VRB7      30.08F
PATTERSON      PTCLDY    67  66  97 SE6       30.11F
SALT POINT       N/A     67  65  93 SE8       30.08F
NEW IBERIA     MOCLDY    67  64  90 SE8       30.10S
CHENAULT AIRPK PTCLDY    67  65  93 SE10      30.05S

$$

LAZ027-028-241100-
CENTRAL LOUISIANA

CITY           SKY/WX    TMP DP  RH WIND       PRES   REMARKS
FORT POLK      CLOUDY    68  65  89 S16       30.03S
ALEXANDRIA INT LGT RAIN  68  64  87 SE13      30.04F
ALEXANDRIA     MOCLDY    69  64  84 SE9G20    30.06F

$$

LAZ001-002-241100-
NORTHWEST LOUISIANA

CITY           SKY/WX    TMP DP  RH WIND       PRES   REMARKS
SHREVEPORT     CLOUDY    67  62  84 S14       29.97F
BARKSDALE AFB  CLOUDY    64  60  88 S14       29.98F
DTN SHREVEPORT CLOUDY    67  60  78 S16G22    29.98F

$$

LAZ014-016-241100-
NORTHEAST LOUISIANA

CITY           SKY/WX    TMP DP  RH WIND       PRES   REMARKS
MONROE         MOCLDY    68  62  81 S8G20     30.06F
TALLULAH       CLOUDY    67  61  81 S10       30.10S

$$





USA.gov is the U.S. government's official web portal to all federal, state and local government web resources and services.